sat.trackr.live / text

‹ back to catalog

STARLINK-5591

NORAD 55771 · 2023-028AG

PAYLOAD ACTIVE UNKNOWN

§ Identity

Operator
Country
US
Launch date
2023-03-03
Launch site
AFWTR
Launch vehicle
Mass (kg)
RCS (m²)

Purposes: comms

External: N2YO · Heavens-Above · Gunter

§ Orbital elements

Epoch: 2026-09-20T23:06:52.901856Z

Period
96.11 min
Inclination
69.9984°
Eccentricity
0.0002448
Mean motion
14.98332146 rev/d
Perigee alt
570.3 km
Apogee alt
573.8 km
Semi-major
6,950.2 km
B*
3.4650e-5
RAAN
92.0848°
Arg perigee
272.3276°
Mean anomaly
87.7602°
Rev number
19,578

§ Raw data

STARLINK-55911 55771U 23028AG  26263.96311229  .00000321  00000+0  34650-4 0  99992 55771  69.9984  92.0848 0002448 272.3276  87.7602 14.98332146195781

JSON: /api/v1/satellites/55771 · /tle

For live sub-satellite position, see the globe view (requires WebGL).

§ Visibility from observer

Set your observer location to see the next 7 days of passes ≥ 10°. The values pass through the URL so the page stays shareable.

No JS? Fill the form by hand. The geolocation button needs JavaScript.